When you browse on this site, cookies collect data to enhance your experience and personalize the content and advertising you see.
Visit our Privacy Policy to learn more. By continuing to use the site, you agree to this use of cookies and data.
  • In Hungary
  • List of Countries
  • For 7 days
  • Water Temperature
  • Satellite Maps
  • Weather Map
  • News
  • Weather Widgets
  • user-avatar
    Login

    Hourly Weather Sanctorum

    Today, 17 February, Sunday

    Time Temperature Precipitation Wind Pressure Humidity
    00:00 +14°C° 0 mm 1 mps 552 mmHg 37%
    01:00 +14°C° 0 mm 1 mps 552 mmHg 36%
    02:00 +13°C° 0 mm 1 mps 552 mmHg 35%
    03:00 +13°C° 0 mm 1 mps 552 mmHg 35%
    04:00 +12°C° 0 mm 1 mps 552 mmHg 36%
    05:00 +12°C° 0 mm 1 mps 552 mmHg 36%
    06:00 +13°C° 0 mm 1 mps 553 mmHg 34%
    07:00 +15°C° 0 mm 1 mps 554 mmHg 32%
    08:00 +16°C° 0 mm 2 mps 555 mmHg 30%
    09:00 +19°C° 0 mm 2 mps 556 mmHg 26%
    10:00 +21°C° 0 mm 2 mps 557 mmHg 22%
    11:00 +24°C° 0 mm 3 mps 558 mmHg 17%
    12:00 +25°C° 0 mm 3 mps 557 mmHg 16%
    13:00 +25°C° 0 mm 3 mps 557 mmHg 16%
    14:00 +26°C° 0 mm 3 mps 557 mmHg 15%
    15:00 +25°C° 0 mm 3 mps 556 mmHg 18%
    16:00 +22°C° 0 mm 4 mps 556 mmHg 21%
    17:00 +21°C° 0 mm 4 mps 555 mmHg 25%
    18:00 +19°C° 0 mm 3 mps 555 mmHg 30%
    19:00 +17°C° 0 mm 2 mps 555 mmHg 35%
    20:00 +15°C° 0 mm 2 mps 554 mmHg 40%
    21:00 +15°C° 0 mm 1 mps 554 mmHg 41%
    22:00 +14°C° 0 mm 1 mps 554 mmHg 43%
    23:00 +14°C° 0 mm 1 mps 554 mmHg 45%

    Tomorrow, 18 February, Monday

    Time Temperature Precipitation Wind Pressure Humidity
    00:00 +13°C° 0 mm 1 mps 554 mmHg 47%
    01:00 +13°C° 0 mm 1 mps 554 mmHg 50%
    02:00 +12°C° 0 mm 1 mps 553 mmHg 52%
    03:00 +12°C° 0 mm 1 mps 553 mmHg 53%
    04:00 +11°C° 0 mm 1 mps 553 mmHg 54%
    05:00 +11°C° 0 mm 1 mps 553 mmHg 56%
    06:00 +13°C° 0 mm 1 mps 554 mmHg 50%
    07:00 +15°C° 0 mm 1 mps 555 mmHg 44%
    08:00 +16°C° 0 mm 1 mps 556 mmHg 38%
    09:00 +18°C° 0 mm 2 mps 557 mmHg 32%
    10:00 +20°C° 0 mm 2 mps 558 mmHg 26%
    11:00 +22°C° 0 mm 3 mps 559 mmHg 19%
    12:00 +23°C° 0 mm 4 mps 559 mmHg 19%
    13:00 +23°C° 0 mm 5 mps 558 mmHg 19%
    14:00 +25°C° 0 mm 5 mps 558 mmHg 18%
    15:00 +22°C° 0 mm 5 mps 557 mmHg 21%
    16:00 +21°C° 0 mm 5 mps 556 mmHg 24%
    17:00 +20°C° 0 mm 5 mps 556 mmHg 27%
    18:00 +18°C° 0 mm 4 mps 555 mmHg 30%
    19:00 +16°C° 0 mm 3 mps 555 mmHg 33%
    20:00 +14°C° 0 mm 2 mps 555 mmHg 37%
    21:00 +14°C° 0 mm 2 mps 555 mmHg 38%
    22:00 +14°C° 0 mm 2 mps 554 mmHg 40%
    23:00 +13°C° 0 mm 2 mps 554 mmHg 41%

    Day after tomorrow, 19 February, Tuesday

    Time Temperature Precipitation Wind Pressure Humidity
    00:00 +13°C° 0 mm 2 mps 554 mmHg 46%
    01:00 +12°C° 0 mm 2 mps 553 mmHg 50%
    02:00 +12°C° 0 mm 2 mps 553 mmHg 55%
    03:00 +10°C° 0 mm 2 mps 552 mmHg 56%
    04:00 +10°C° 0 mm 2 mps 552 mmHg 56%
    05:00 +10°C° 0 mm 1 mps 552 mmHg 57%
    06:00 +12°C° 0 mm 2 mps 553 mmHg 51%
    07:00 +13°C° 0 mm 2 mps 554 mmHg 44%
    08:00 +15°C° 0 mm 2 mps 555 mmHg 38%
    09:00 +17°C° 0 mm 3 mps 556 mmHg 31%
    10:00 +19°C° 0 mm 4 mps 557 mmHg 24%
    11:00 +21°C° 0 mm 5 mps 558 mmHg 17%
    12:00 +21°C° 0 mm 5 mps 557 mmHg 16%
    13:00 +22°C° 0 mm 5 mps 557 mmHg 14%
    14:00 +22°C° 0 mm 6 mps 556 mmHg 13%
    15:00 +21°C° 0 mm 5 mps 555 mmHg 16%
    16:00 +20°C° 0 mm 5 mps 555 mmHg 18%
    17:00 +19°C° 0 mm 4 mps 554 mmHg 21%
    18:00 +17°C° 0 mm 4 mps 554 mmHg 26%
    19:00 +14°C° 0 mm 3 mps 553 mmHg 30%
    20:00 +13°C° 0 mm 2 mps 553 mmHg 35%
    21:00 +13°C° 0 mm 2 mps 553 mmHg 37%
    22:00 +12°C° 0 mm 2 mps 552 mmHg 39%
    23:00 +12°C° 0 mm 1 mps 552 mmHg 42%

    20 February, Wednesday

    Time Temperature Precipitation Wind Pressure Humidity
    00:00 +11°C° 0 mm 1 mps 552 mmHg 44%
    01:00 +11°C° 0 mm 1 mps 551 mmHg 47%
    02:00 +10°C° 0 mm 1 mps 550 mmHg 49%
    03:00 +10°C° 0 mm 1 mps 550 mmHg 51%
    04:00 +9°C° 0 mm 1 mps 550 mmHg 52%
    05:00 +9°C° 0 mm 1 mps 550 mmHg 53%
    06:00 +11°C° 0 mm 1 mps 551 mmHg 48%
    07:00 +12°C° 0 mm 2 mps 552 mmHg 43%
    08:00 +14°C° 0 mm 2 mps 553 mmHg 38%
    09:00 +16°C° 0 mm 2 mps 554 mmHg 31%
    10:00 +18°C° 0 mm 3 mps 555 mmHg 24%
    11:00 +20°C° 0 mm 4 mps 556 mmHg 17%
    12:00 +20°C° 0 mm 4 mps 556 mmHg 16%
    13:00 +21°C° 0 mm 4 mps 555 mmHg 14%
    14:00 +22°C° 0 mm 5 mps 555 mmHg 12%
    15:00 +21°C° 0 mm 5 mps 554 mmHg 14%
    16:00 +19°C° 0 mm 5 mps 554 mmHg 16%
    17:00 +17°C° 0 mm 5 mps 553 mmHg 18%
    18:00 +15°C° 0 mm 4 mps 553 mmHg 21%
    19:00 +14°C° 0 mm 4 mps 552 mmHg 24%
    20:00 +12°C° 0 mm 3 mps 552 mmHg 27%
    21:00 +11°C° 0 mm 3 mps 552 mmHg 29%
    22:00 +11°C° 0 mm 3 mps 552 mmHg 31%
    23:00 +10°C° 0 mm 3 mps 552 mmHg 33%

    21 February, Thursday

    Time Temperature Precipitation Wind Pressure Humidity
    00:00 +10°C° 0 mm 2 mps 551 mmHg 35%
    01:00 +9°C° 0 mm 2 mps 551 mmHg 37%
    02:00 +9°C° 0 mm 2 mps 550 mmHg 39%
    03:00 +8°C° 0 mm 2 mps 550 mmHg 40%
    04:00 +8°C° 0 mm 2 mps 550 mmHg 41%
    05:00 +7°C° 0 mm 2 mps 550 mmHg 42%
    06:00 +9°C° 0 mm 2 mps 551 mmHg 38%
    07:00 +12°C° 0 mm 2 mps 553 mmHg 35%
    08:00 +12°C° 0 mm 3 mps 554 mmHg 31%
    09:00 +16°C° 0 mm 3 mps 555 mmHg 26%
    10:00 +18°C° 0 mm 4 mps 556 mmHg 21%
    11:00 +20°C° 0 mm 4 mps 556 mmHg 16%
    12:00 +21°C° 0 mm 4 mps 556 mmHg 16%
    13:00 +22°C° 0 mm 4 mps 556 mmHg 15%
    14:00 +22°C° 0 mm 4 mps 555 mmHg 15%
    15:00 +21°C° 0 mm 4 mps 555 mmHg 17%
    16:00 +20°C° 0 mm 4 mps 555 mmHg 20%
    17:00 +19°C° 0 mm 3 mps 554 mmHg 22%
    18:00 +17°C° 0 mm 3 mps 554 mmHg 26%
    19:00 +16°C° 0 mm 2 mps 554 mmHg 30%
    20:00 +14°C° 0 mm 2 mps 553 mmHg 34%
    21:00 +13°C° 0 mm 1 mps 553 mmHg 36%
    22:00 +13°C° 0 mm 1 mps 553 mmHg 37%
    23:00 +12°C° 0 mm 1 mps 553 mmHg 39%

    22 February, Friday

    Time Temperature Precipitation Wind Pressure Humidity
    00:00 +12°C° 0 mm 1 mps 552 mmHg 40%
    01:00 +11°C° 0 mm 1 mps 552 mmHg 41%
    02:00 +11°C° 0 mm 1 mps 551 mmHg 42%
    03:00 +11°C° 0 mm 1 mps 552 mmHg 43%
    04:00 +10°C° 0 mm 1 mps 552 mmHg 43%
    05:00 +10°C° 0 mm 1 mps 552 mmHg 44%
    06:00 +12°C° 0 mm 1 mps 553 mmHg 41%
    07:00 +14°C° 0 mm 1 mps 554 mmHg 37%
    08:00 +15°C° 0 mm 1 mps 555 mmHg 34%
    09:00 +18°C° 0 mm 1 mps 556 mmHg 30%
    10:00 +20°C° 0 mm 1 mps 557 mmHg 26%
    11:00 +21°C° 0 mm 2 mps 558 mmHg 22%
    12:00 +23°C° 0 mm 2 mps 557 mmHg 21%
    13:00 +24°C° 0 mm 3 mps 557 mmHg 20%
    14:00 +23°C° 0 mm 4 mps 557 mmHg 19%
    15:00 +22°C° 0 mm 4 mps 556 mmHg 21%
    16:00 +21°C° 0 mm 4 mps 556 mmHg 23%
    17:00 +20°C° 0 mm 5 mps 556 mmHg 25%
    18:00 +18°C° 0 mm 4 mps 555 mmHg 29%
    19:00 +17°C° 0 mm 2 mps 555 mmHg 33%
    20:00 +15°C° 0 mm 1 mps 555 mmHg 37%
    21:00 +14°C° 0 mm 1 mps 554 mmHg 39%
    22:00 +14°C° 0 mm 1 mps 554 mmHg 40%
    23:00 +13°C° 0 mm 1 mps 554 mmHg 41%
    Show more